When you browse on this site, cookies collect data to enhance your experience and personalize the content and advertising you see.
Visit our Privacy Policy to learn more. By continuing to use the site, you agree to this use of cookies and data.
  • en France
  • Liste des pays
  • À 7 jours
  • Température de l'eau
  • Carte météo
  • Widgets météo
  • user-avatar
    Se connecter

    Météo par heure à Buenos Aires

    Ce jour, 15 Septembre, Dimanche

    Heure Température Précipitation Vent Pression Humidité
    00:00 +24°C° 0.8 mm 1 m/s 717 mmHg 97%
    01:00 +23°C° 0.8 mm 1 m/s 717 mmHg 97%
    02:00 +23°C° 0.8 mm 1 m/s 716 mmHg 97%
    03:00 +23°C° 0.1 mm 1 m/s 716 mmHg 97%
    04:00 +21°C° 0.1 mm 0 m/s 716 mmHg 97%
    05:00 +21°C° 0.1 mm 0 m/s 716 mmHg 97%
    06:00 +22°C° 0 mm 0 m/s 717 mmHg 94%
    07:00 +23°C° 0 mm 0 m/s 717 mmHg 92%
    08:00 +24°C° 0 mm 0 m/s 717 mmHg 89%
    09:00 +25°C° 0.2 mm 0 m/s 717 mmHg 83%
    10:00 +29°C° 0.2 mm 1 m/s 717 mmHg 77%
    11:00 +30°C° 0.2 mm 1 m/s 717 mmHg 72%
    12:00 +31°C° 0.3 mm 1 m/s 716 mmHg 69%
    13:00 +32°C° 0.3 mm 1 m/s 715 mmHg 67%
    14:00 +30°C° 0.3 mm 0 m/s 714 mmHg 65%
    15:00 +29°C° 0.4 mm 0 m/s 714 mmHg 69%
    16:00 +28°C° 0.4 mm 0 m/s 714 mmHg 73%
    17:00 +27°C° 0.4 mm 0 m/s 714 mmHg 77%
    18:00 +26°C° 0.5 mm 0 m/s 714 mmHg 79%
    19:00 +27°C° 0.5 mm 1 m/s 715 mmHg 80%
    20:00 +26°C° 0.5 mm 1 m/s 715 mmHg 82%
    21:00 +25°C° 0.5 mm 1 m/s 716 mmHg 84%
    22:00 +25°C° 0.5 mm 1 m/s 716 mmHg 87%
    23:00 +24°C° 0.5 mm 1 m/s 716 mmHg 89%

    Demain, 16 Septembre, Lundi

    Heure Température Précipitation Vent Pression Humidité
    00:00 +24°C° 0.8 mm 1 m/s 716 mmHg 90%
    01:00 +24°C° 0.8 mm 1 m/s 716 mmHg 91%
    02:00 +21°C° 0.8 mm 0 m/s 715 mmHg 92%
    03:00 +23°C° 0.3 mm 1 m/s 715 mmHg 92%
    04:00 +23°C° 0.3 mm 1 m/s 716 mmHg 92%
    05:00 +23°C° 0.3 mm 1 m/s 716 mmHg 92%
    06:00 +24°C° 0 mm 1 m/s 716 mmHg 89%
    07:00 +25°C° 0 mm 1 m/s 716 mmHg 87%
    08:00 +25°C° 0 mm 0 m/s 717 mmHg 84%
    09:00 +28°C° 0.1 mm 1 m/s 717 mmHg 78%
    10:00 +30°C° 0.1 mm 1 m/s 716 mmHg 73%
    11:00 +32°C° 0.1 mm 1 m/s 716 mmHg 68%
    12:00 +32°C° 0.3 mm 1 m/s 715 mmHg 66%
    13:00 +33°C° 0.3 mm 1 m/s 715 mmHg 65%
    14:00 +33°C° 0.3 mm 1 m/s 714 mmHg 63%
    15:00 +30°C° 0.8 mm 0 m/s 714 mmHg 68%
    16:00 +29°C° 0.8 mm 0 m/s 714 mmHg 73%
    17:00 +28°C° 0.8 mm 0 m/s 713 mmHg 77%
    18:00 +27°C° 0.3 mm 0 m/s 714 mmHg 80%
    19:00 +27°C° 0.3 mm 1 m/s 715 mmHg 82%
    20:00 +26°C° 0.3 mm 1 m/s 715 mmHg 84%
    21:00 +25°C° 1 mm 1 m/s 715 mmHg 86%
    22:00 +25°C° 1 mm 1 m/s 715 mmHg 88%
    23:00 +24°C° 1 mm 1 m/s 716 mmHg 91%

    Après-demain, 17 Septembre, Mardi

    Heure Température Précipitation Vent Pression Humidité
    00:00 +24°C° 1.7 mm 1 m/s 715 mmHg 92%
    01:00 +24°C° 1.7 mm 1 m/s 715 mmHg 93%
    02:00 +24°C° 1.7 mm 1 m/s 715 mmHg 94%
    03:00 +23°C° 0.2 mm 1 m/s 715 mmHg 93%
    04:00 +23°C° 0.2 mm 1 m/s 715 mmHg 93%
    05:00 +21°C° 0.2 mm 0 m/s 716 mmHg 92%
    06:00 +22°C° 0 mm 0 m/s 716 mmHg 90%
    07:00 +24°C° 0 mm 0 m/s 717 mmHg 87%
    08:00 +25°C° 0 mm 0 m/s 717 mmHg 85%
    09:00 +27°C° 0.1 mm 0 m/s 717 mmHg 79%
    10:00 +30°C° 0.1 mm 1 m/s 717 mmHg 72%
    11:00 +32°C° 0.1 mm 1 m/s 716 mmHg 66%
    12:00 +32°C° 0.4 mm 1 m/s 716 mmHg 65%
    13:00 +31°C° 0.4 mm 0 m/s 715 mmHg 65%
    14:00 +31°C° 0.4 mm 0 m/s 715 mmHg 64%
    15:00 +30°C° 1.1 mm 0 m/s 715 mmHg 70%
    16:00 +28°C° 1.1 mm 0 m/s 714 mmHg 75%
    17:00 +29°C° 1.1 mm 1 m/s 714 mmHg 81%
    18:00 +28°C° 1.8 mm 1 m/s 715 mmHg 85%
    19:00 +26°C° 1.8 mm 1 m/s 716 mmHg 89%
    20:00 +25°C° 1.8 mm 1 m/s 716 mmHg 92%
    21:00 +25°C° 1.3 mm 1 m/s 716 mmHg 93%
    22:00 +25°C° 1.3 mm 1 m/s 717 mmHg 93%
    23:00 +22°C° 1.3 mm 0 m/s 717 mmHg 94%

    18 Septembre, Mercredi

    Heure Température Précipitation Vent Pression Humidité
    00:00 +22°C° 0.3 mm 0 m/s 717 mmHg 94%
    01:00 +22°C° 0.3 mm 0 m/s 716 mmHg 94%
    02:00 +24°C° 0.3 mm 1 m/s 716 mmHg 95%
    03:00 +21°C° 0 mm 0 m/s 716 mmHg 95%
    04:00 +21°C° 0 mm 0 m/s 716 mmHg 96%
    05:00 +21°C° 0 mm 0 m/s 716 mmHg 96%
    06:00 +22°C° 0 mm 0 m/s 716 mmHg 93%
    07:00 +23°C° 0 mm 0 m/s 717 mmHg 89%
    08:00 +25°C° 0 mm 0 m/s 717 mmHg 86%
    09:00 +26°C° 0.1 mm 0 m/s 717 mmHg 80%
    10:00 +28°C° 0.1 mm 0 m/s 717 mmHg 74%
    11:00 +32°C° 0.1 mm 1 m/s 717 mmHg 69%
    12:00 +30°C° 0.1 mm 0 m/s 716 mmHg 67%
    13:00 +30°C° 0.1 mm 0 m/s 716 mmHg 66%
    14:00 +30°C° 0.1 mm 0 m/s 715 mmHg 64%
    15:00 +29°C° 0.2 mm 0 m/s 715 mmHg 69%
    16:00 +28°C° 0.2 mm 0 m/s 715 mmHg 74%
    17:00 +27°C° 0.2 mm 0 m/s 715 mmHg 79%
    18:00 +26°C° 0.1 mm 0 m/s 715 mmHg 83%
    19:00 +25°C° 0.1 mm 0 m/s 716 mmHg 86%
    20:00 +25°C° 0.1 mm 1 m/s 716 mmHg 89%
    21:00 +25°C° 0.1 mm 1 m/s 716 mmHg 90%
    22:00 +23°C° 0.1 mm 0 m/s 716 mmHg 92%
    23:00 +23°C° 0.1 mm 0 m/s 716 mmHg 93%

    19 Septembre, Jeudi

    Heure Température Précipitation Vent Pression Humidité
    00:00 +23°C° 0.1 mm 0 m/s 716 mmHg 94%
    01:00 +23°C° 0.1 mm 0 m/s 716 mmHg 94%
    02:00 +22°C° 0.1 mm 0 m/s 715 mmHg 95%
    03:00 +22°C° 0.1 mm 0 m/s 715 mmHg 95%
    04:00 +22°C° 0.1 mm 0 m/s 715 mmHg 96%
    05:00 +22°C° 0.1 mm 0 m/s 715 mmHg 96%
    06:00 +23°C° 0.2 mm 0 m/s 716 mmHg 94%
    07:00 +23°C° 0.2 mm 0 m/s 716 mmHg 92%
    08:00 +24°C° 0.2 mm 0 m/s 716 mmHg 89%
    09:00 +26°C° 0.1 mm 0 m/s 716 mmHg 84%
    10:00 +29°C° 0.1 mm 1 m/s 716 mmHg 80%
    11:00 +30°C° 0.1 mm 1 m/s 716 mmHg 75%
    12:00 +31°C° 0.2 mm 1 m/s 715 mmHg 73%
    13:00 +31°C° 0.2 mm 1 m/s 714 mmHg 71%
    14:00 +30°C° 0.2 mm 0 m/s 714 mmHg 68%
    15:00 +29°C° 0.5 mm 0 m/s 714 mmHg 72%
    16:00 +28°C° 0.5 mm 0 m/s 714 mmHg 76%
    17:00 +27°C° 0.5 mm 0 m/s 714 mmHg 80%
    18:00 +26°C° 1 mm 0 m/s 714 mmHg 84%
    19:00 +27°C° 1 mm 1 m/s 714 mmHg 87%
    20:00 +25°C° 1 mm 1 m/s 715 mmHg 91%
    21:00 +25°C° 1.3 mm 1 m/s 715 mmHg 92%
    22:00 +25°C° 1.3 mm 1 m/s 715 mmHg 92%
    23:00 +22°C° 1.3 mm 0 m/s 716 mmHg 93%

    20 Septembre, Vendredi

    Heure Température Précipitation Vent Pression Humidité
    00:00 +24°C° 0.3 mm 1 m/s 715 mmHg 93%
    01:00 +24°C° 0.3 mm 1 m/s 715 mmHg 94%
    02:00 +24°C° 0.3 mm 1 m/s 714 mmHg 94%
    03:00 +23°C° 0 mm 1 m/s 714 mmHg 94%
    04:00 +21°C° 0 mm 0 m/s 714 mmHg 94%
    05:00 +21°C° 0 mm 0 m/s 714 mmHg 93%
    06:00 +22°C° 0 mm 0 m/s 715 mmHg 91%
    07:00 +23°C° 0 mm 0 m/s 715 mmHg 88%
    08:00 +25°C° 0 mm 0 m/s 716 mmHg 85%
    09:00 +28°C° 0.3 mm 1 m/s 716 mmHg 79%
    10:00 +30°C° 0.3 mm 1 m/s 716 mmHg 73%
    11:00 +31°C° 0.3 mm 1 m/s 715 mmHg 67%
    12:00 +32°C° 0.3 mm 1 m/s 715 mmHg 64%
    13:00 +32°C° 0.3 mm 1 m/s 714 mmHg 61%
    14:00 +33°C° 0.3 mm 1 m/s 714 mmHg 58%
    15:00 +32°C° 0.2 mm 1 m/s 714 mmHg 64%
    16:00 +31°C° 0.2 mm 1 m/s 714 mmHg 70%
    17:00 +28°C° 0.2 mm 0 m/s 714 mmHg 76%
    18:00 +28°C° 0.6 mm 1 m/s 714 mmHg 80%
    19:00 +26°C° 0.6 mm 1 m/s 715 mmHg 85%
    20:00 +24°C° 0.6 mm 1 m/s 715 mmHg 89%
    21:00 +24°C° 0.8 mm 1 m/s 715 mmHg 89%
    22:00 +24°C° 0.8 mm 1 m/s 716 mmHg 90%
    23:00 +23°C° 0.8 mm 1 m/s 716 mmHg 91%
    Voir plus